Location: Valdosta
(30.8330°N, 83.2790°W)
Time: 16:29:54
(UTC-04:00)

Daily predictions for brighter satellites

Satellite Brightness Start Highest point End
(mag) Time Altitude Azimuth Time Altitude Azimuth Time Altitude Azimuth
NOSS 3-2 (A) 3.9 19:36:56 10° SW 19:42:49 67° WNW 19:49:12 10° NNE
Cosmos 1758 4.2 19:43:52 10° SSE 19:47:21 28° E 19:50:50 10° NNE
ASTRO E2 2.7 19:44:36 10° W 19:48:39 81° N 19:52:41 10° E
SEDSat Delta rocket 4.1 19:42:22 10° W 19:48:53 86° N 19:55:45 10° E
Cosmos 1484 Rocket 2.7 19:46:11 10° SSE 19:49:57 75° ENE 19:53:50 10° N
ATLAS 5 CENTAUR R/B 2.0 19:48:01 10° SW 19:52:40 75° WNW 19:57:40 10° NNE
Cosmos 1452 Rocket 4.5 19:48:46 10° N 19:53:10 27° ENE 19:57:33 10° SE
Abrixas 2.8 19:50:44 10° SW 19:53:42 67° NW 19:56:41 10° NE
Cosmos 2346 Rocket 4.5 19:50:09 10° N 19:56:13 88° W 20:02:16 10° S
Cosmos 1437 3.1 19:55:30 10° NNW 19:58:45 71° W 20:02:00 10° S
Cosmos 1072 Rocket 4.4 19:53:18 10° S 19:59:24 78° E 20:05:30 10° N
COSMO-SKYMED 1 4.1 20:01:12 10° N 20:05:16 40° WNW 20:09:19 10° SW
Cosmos 1766 4.2 20:06:32 10° SSW 20:10:23 53° W 20:14:17 10° N
Atlas Centaur 2 3.5 20:05:03 10° W 20:13:28 61° SSW 20:20:45 13° ESE
SL-16 R/B 3.8 20:08:25 10° SW 20:13:38 38° WNW 20:18:55 10° N
CENTAUR R/B 2.9 20:09:05 10° S 20:14:22 37° ESE 20:20:10 10° NE
ASTEX 1 4.4 20:10:37 10° NE 20:14:33 24° E 20:18:28 10° SE
Cosmos 1544 3.5 20:13:04 10° SSE 20:16:34 40° E 20:20:06 10° NNE
METEOR-M 4.2 20:12:55 10° SSE 20:18:06 54° ENE 20:23:18 10° N
Helios 1B rocket 2.3 20:16:44 10° NNE 20:20:49 66° ESE 20:24:53 10° S
Cosmos 1766 Rocket 3.4 20:20:09 10° N 20:24:29 67° E 20:28:46 10° SSE
Spot 1 4.2 20:19:58 10° SSE 20:24:43 62° ENE 20:29:13 10° N
Spot 2 Rocket 3.6 20:20:17 10° SSE 20:25:10 54° ENE 20:30:05 10° N
SAR-Lupe-4 4.3 20:22:20 10° S 20:25:49 55° W 20:29:20 10° NNW
OAO 3 Rocket 3.7 20:22:39 10° WNW 20:27:17 51° N 20:30:04 23° ENE
Cosmos 1048 Rocket 4.0 20:22:40 10° S 20:27:52 58° ESE 20:33:02 10° NNE
Cosmos 1269 Rocket 3.9 20:23:09 10° S 20:28:23 71° ESE 20:33:38 10° NNE
Cosmos 1378 4.2 20:25:44 10° NNW 20:29:19 47° W 20:32:54 10° SSW
Milstar 3 4.4 20:19:39 10° W 20:29:31 79° S 20:43:34 22° ESE
Cosmos 1076 Rocket 3.6 20:25:48 10° N 20:30:08 81° W 20:34:29 10° S
Cosmos-2242 3.0 20:27:28 10° S 20:31:49 86° W 20:36:13 10° N
FENGYUN 3A 4.2 20:28:51 20° ESE 20:31:52 34° ENE 20:36:40 10° N
Cosmos 2034 Rocket 4.1 20:28:00 10° S 20:34:14 81° W 20:40:34 10° N
H-2A R/B 4.3 20:39:09 21° NE 20:39:09 21° NE 20:41:01 10° NNE
Cosmos 1805 4.0 20:35:19 10° SSW 20:39:09 55° W 20:43:01 10° N
Gbstr 26 Del rocket 3.0 20:35:02 10° SW 20:39:13 88° ESE 20:42:56 18° NE
Cosmos 1953 3.1 20:36:38 10° SSW 20:40:31 52° W 20:44:25 10° N
ATLAS CENTAUR R/B 3.9 20:37:44 10° WNW 20:40:37 20° WSW 20:43:22 10° SSW
Cosmos 1174 4.2 20:36:29 10° SSW 20:41:43 57° ESE 20:44:15 24° NE
ISS -2.0 20:39:09 10° WSW 20:42:12 37° NW 20:44:06 19° NNE
ALOS 2.5 20:42:16 33° ESE 20:43:47 44° ENE 20:48:13 10° N
HJ-1C 3.5 20:42:49 12° S 20:45:55 72° W 20:49:16 10° NNW
Centaur AC-146 4.3 20:46:58 10° S 20:47:25 11° S 20:47:25 11° S
Cosmos 1842 Rocket 3.3 20:47:17 10° S 20:51:34 71° E 20:55:54 10° N
Meteosat 1 Rocket2 3.8 20:45:25 10° WSW 20:52:15 53° S 20:53:40 41° ESE
Cosmos 158 Rocket 3.8 20:48:16 10° S 20:53:04 57° ESE 20:57:50 10° NNE
Cosmos 1943 3.0 20:50:15 10° S 20:55:51 70° ESE 21:01:27 10° NNE
Delta 168 4.0 20:52:10 10° WSW 20:56:48 50° S 20:58:40 38° SE
Cosmos 1500 Rocket 3.9 20:53:19 10° N 20:57:01 47° NE 20:57:01 47° NE
GPS 2-04 Rocket1 3.0 20:54:40 10° W 20:58:04 48° N 20:58:12 48° N
USA 215 4.2 20:53:22 10° NNE 20:59:32 46° NW 21:05:41 10° WSW
Cosmos 2369 Rocket 3.3 20:55:53 10° N 20:59:45 27° NE 20:59:45 27° NE
FUSE 4.4 20:56:36 10° WSW 21:01:41 45° S 21:02:37 41° SSE
ASC 2 Rocket 4.5 20:58:46 10° WSW 21:02:07 22° SSW 21:02:29 22° S
Cosmos 1470 2.7 20:58:44 10° S 21:02:37 82° W 21:06:31 10° N
Resurs 1-3 4.3 21:10:01 17° S 21:13:11 52° W 21:17:29 10° NNW
Helios 1A 4.1 21:10:01 10° S 21:13:54 42° W 21:17:55 10° NNW
SeaSat 1 2.3 21:15:13 63° NE 21:16:00 82° ESE 21:20:55 10° SSW
Resurs 01 Rocket 3.1 21:12:29 10° SSW 21:16:33 36° W 21:20:41 10° NNW
Cosmos 1674 4.2 21:19:13 10° NNW 21:21:24 32° NNW 21:21:24 32° NNW
ASTRO E2 4.2 21:25:16 10° W 21:27:45 34° W 21:27:45 34° W
SEDSat Delta rocket 3.9 21:29:01 10° W 21:35:48 83° SSW 21:35:59 82° SSE
Atlas Centaur 2 4.2 21:56:00 10° W 22:02:42 27° SSW 22:03:25 26° SSW
CENTAUR R/B 4.1 21:59:49 10° WSW 22:04:59 29° NW 22:10:41 10° N
